Time,TemperatureF,DewpointF,PressureIn,WindDirection,WindDirectionDegrees,WindSpeedMPH,WindSpeedGustMPH,Humidity,HourlyPrecipIn,Conditions,Clouds,dailyrainin,SoftwareType,DateUTC
2013-07-07 00:00:00,66.9,29.0,29.85,NW,306,5.8,5.8,24,0.00,,,0.00,VWS V14.01,2013-07-07 07:00:00,
2013-07-07 00:05:00,66.9,29.0,29.85,SSW,203,3.6,5.8,24,0.00,,,0.00,VWS V14.01,2013-07-07 07:05:00,
2013-07-07 00:11:00,66.7,28.8,29.85,WSW,240,7.6,7.6,24,0.00,,,0.00,VWS V14.01,2013-07-07 07:11:00,
2013-07-07 00:16:00,66.6,28.7,29.85,WSW,247,8.7,13.2,24,0.00,,,0.00,VWS V14.01,2013-07-07 07:16:00,
2013-07-07 00:22:00,66.4,28.5,29.85,West,272,2.7,4.0,24,0.00,,,0.00,VWS V14.01,2013-07-07 07:22:00,
2013-07-07 00:28:00,66.4,28.5,29.85,West,276,2.2,2.2,24,0.00,,,0.00,VWS V14.01,2013-07-07 07:28:00,
2013-07-07 00:33:00,66.0,28.2,29.85,WSW,237,4.9,4.9,24,0.00,,,0.00,VWS V14.01,2013-07-07 07:33:00,
2013-07-07 00:40:00,66.0,28.2,29.85,SW,234,5.8,5.8,24,0.00,,,0.00,VWS V14.01,2013-07-07 07:40:00,
2013-07-07 00:45:00,65.8,28.1,29.85,WSW,246,4.0,8.1,24,0.00,,,0.00,VWS V14.01,2013-07-07 07:45:00,
2013-07-07 00:50:00,65.7,27.9,29.85,WSW,239,2.2,6.3,24,0.00,,,0.00,VWS V14.01,2013-07-07 07:50:00,
2013-07-07 00:57:00,65.5,27.8,29.85,WSW,256,0.0,5.8,24,0.00,,,0.00,VWS V14.01,2013-07-07 07:57:00,
2013-07-07 01:02:00,65.3,27.6,29.85,WSW,237,0.0,0.0,24,0.00,,,0.00,VWS V14.01,2013-07-07 08:02:00,
2013-07-07 01:08:00,65.1,27.5,29.85,WSW,247,4.0,8.7,24,0.00,,,0.00,VWS V14.01,2013-07-07 08:08:00,
2013-07-07 01:13:00,65.1,27.5,29.85,WSW,245,0.0,4.0,24,0.00,,,0.00,VWS V14.01,2013-07-07 08:13:00,
2013-07-07 01:18:00,64.9,27.3,29.85,SW,224,2.7,2.7,24,0.00,,,0.00,VWS V14.01,2013-07-07 08:18:00,
2013-07-07 01:23:00,64.9,27.3,29.85,WNW,285,0.0,0.0,24,0.00,,,0.00,VWS V14.01,2013-07-07 08:23:00,
2013-07-07 01:28:00,64.8,27.2,29.85,WSW,245,0.0,0.0,24,0.00,,,0.00,VWS V14.01,2013-07-07 08:28:00,
2013-07-07 01:34:00,64.8,27.2,29.85,WSW,249,2.7,4.9,24,0.00,,,0.00,VWS V14.01,2013-07-07 08:34:00,
2013-07-07 01:40:00,64.4,26.9,29.85,SW,231,2.7,2.7,24,0.00,,,0.00,VWS V14.01,2013-07-07 08:40:00,
2013-07-07 01:45:00,64.4,26.9,29.85,West,263,4.0,8.1,24,0.00,,,0.00,VWS V14.01,2013-07-07 08:45:00,
2013-07-07 01:51:00,64.2,26.7,29.85,SW,228,2.7,4.0,24,0.00,,,0.00,VWS V14.01,2013-07-07 08:51:00,
2013-07-07 01:56:00,64.0,26.5,29.85,SW,222,4.0,5.8,24,0.00,,,0.00,VWS V14.01,2013-07-07 08:56:00,
2013-07-07 02:01:00,63.9,26.4,29.85,West,263,0.0,0.0,24,0.00,,,0.00,VWS V14.01,2013-07-07 09:01:00,
2013-07-07 02:07:00,63.7,26.2,29.85,WSW,254,2.7,3.6,24,0.00,,,0.00,VWS V14.01,2013-07-07 09:07:00,
2013-07-07 02:12:00,63.5,26.1,29.85,West,261,2.2,2.2,24,0.00,,,0.00,VWS V14.01,2013-07-07 09:12:00,
2013-07-07 02:18:00,63.1,25.8,29.85,West,280,0.0,0.0,24,0.00,,,0.00,VWS V14.01,2013-07-07 09:18:00,
2013-07-07 02:24:00,63.0,25.6,29.85,NNW,337,0.0,0.0,24,0.00,,,0.00,VWS V14.01,2013-07-07 09:24:00,
2013-07-07 02:30:00,62.8,25.5,29.85,WSW,255,5.4,5.4,24,0.00,,,0.00,VWS V14.01,2013-07-07 09:30:00,
2013-07-07 02:35:00,62.8,25.5,29.85,West,263,3.1,3.1,24,0.00,,,0.00,VWS V14.01,2013-07-07 09:35:00,
2013-07-07 02:40:00,62.6,25.3,29.85,West,266,0.0,0.0,24,0.00,,,0.00,VWS V14.01,2013-07-07 09:40:00,
2013-07-07 02:46:00,62.6,25.3,29.85,SW,236,0.0,0.0,24,0.00,,,0.00,VWS V14.01,2013-07-07 09:46:00,
2013-07-07 02:51:00,62.4,26.2,29.85,West,272,0.0,0.0,25,0.00,,,0.00,VWS V14.01,2013-07-07 09:51:00,
2013-07-07 02:57:00,61.9,25.7,29.85,West,279,0.0,0.0,25,0.00,,,0.00,VWS V14.01,2013-07-07 09:57:00,
2013-07-07 03:02:00,61.5,25.4,29.85,WNW,298,0.0,0.0,25,0.00,,,0.00,VWS V14.01,2013-07-07 10:02:00,
2013-07-07 03:08:00,61.5,25.4,29.85,West,275,0.0,0.0,25,0.00,,,0.00,VWS V14.01,2013-07-07 10:08:00,
2013-07-07 03:14:00,61.2,25.1,29.85,West,275,0.0,0.0,25,0.00,,,0.00,VWS V14.01,2013-07-07 10:14:00,
2013-07-07 03:19:00,61.0,24.9,29.85,West,275,0.0,0.0,25,0.00,,,0.00,VWS V14.01,2013-07-07 10:19:00,
2013-07-07 03:25:00,60.8,24.8,29.85,West,275,0.0,0.0,25,0.00,,,0.00,VWS V14.01,2013-07-07 10:25:00,
2013-07-07 03:31:00,60.6,24.6,29.85,West,275,0.0,0.0,25,0.00,,,0.00,VWS V14.01,2013-07-07 10:31:00,
2013-07-07 03:36:00,60.6,24.6,29.85,West,275,0.0,0.0,25,0.00,,,0.00,VWS V14.01,2013-07-07 10:36:00,
2013-07-07 03:42:00,60.4,24.5,29.85,WNW,284,0.0,0.0,25,0.00,,,0.00,VWS V14.01,2013-07-07 10:42:00,
2013-07-07 03:47:00,60.3,24.3,29.85,WNW,284,0.0,0.0,25,0.00,,,0.00,VWS V14.01,2013-07-07 10:47:00,
2013-07-07 03:53:00,60.3,24.3,29.85,WNW,284,0.0,0.0,25,0.00,,,0.00,VWS V14.01,2013-07-07 10:53:00,
2013-07-07 03:59:00,60.1,24.2,29.85,WNW,284,0.0,0.0,25,0.00,,,0.00,VWS V14.01,2013-07-07 10:59:00,
2013-07-07 04:04:00,59.9,24.0,29.85,ENE,71,0.0,0.0,25,0.00,,,0.00,VWS V14.01,2013-07-07 11:04:00,
2013-07-07 04:09:00,59.7,23.9,29.85,ENE,71,0.0,0.0,25,0.00,,,0.00,VWS V14.01,2013-07-07 11:09:00,
2013-07-07 04:14:00,59.5,23.7,29.85,ENE,71,0.0,0.0,25,0.00,,,0.00,VWS V14.01,2013-07-07 11:14:00,
2013-07-07 04:20:00,59.4,23.6,29.85,ENE,71,0.0,0.0,25,0.00,,,0.00,VWS V14.01,2013-07-07 11:20:00,
2013-07-07 04:25:00,59.2,23.4,29.85,ENE,71,0.0,0.0,25,0.00,,,0.00,VWS V14.01,2013-07-07 11:25:00,
2013-07-07 04:30:00,59.0,23.2,29.85,ENE,71,0.0,0.0,25,0.00,,,0.00,VWS V14.01,2013-07-07 11:30:00,
2013-07-07 04:36:00,59.0,23.2,29.88,ENE,71,0.0,0.0,25,0.00,,,0.00,VWS V14.01,2013-07-07 11:36:00,
2013-07-07 04:42:00,58.5,23.7,29.88,ENE,71,0.0,0.0,26,0.00,,,0.00,VWS V14.01,2013-07-07 11:42:00,
2013-07-07 04:47:00,58.1,23.4,29.88,ENE,71,0.0,0.0,26,0.00,,,0.00,VWS V14.01,2013-07-07 11:47:00,
2013-07-07 04:53:00,58.1,23.4,29.88,ENE,71,0.0,0.0,26,0.00,,,0.00,VWS V14.01,2013-07-07 11:53:00,
2013-07-07 04:58:00,58.3,23.6,29.88,ENE,71,0.0,0.0,26,0.00,,,0.00,VWS V14.01,2013-07-07 11:58:00,
2013-07-07 05:04:00,58.3,23.6,29.88,ENE,71,0.0,0.0,26,0.00,,,0.00,VWS V14.01,2013-07-07 12:04:00,
2013-07-07 05:09:00,58.3,23.6,29.88,ENE,71,0.0,0.0,26,0.00,,,0.00,VWS V14.01,2013-07-07 12:09:00,
2013-07-07 05:14:00,58.3,23.6,29.88,ENE,71,0.0,0.0,26,0.00,,,0.00,VWS V14.01,2013-07-07 12:14:00,
2013-07-07 05:20:00,58.3,23.6,29.88,ENE,71,0.0,0.0,26,0.00,,,0.00,VWS V14.01,2013-07-07 12:20:00,
2013-07-07 05:25:00,58.1,23.4,29.88,ENE,71,0.0,0.0,26,0.00,,,0.00,VWS V14.01,2013-07-07 12:25:00,
2013-07-07 05:30:00,57.7,23.1,29.88,ENE,71,0.0,0.0,26,0.00,,,0.00,VWS V14.01,2013-07-07 12:30:00,
2013-07-07 05:35:00,57.6,23.0,29.88,ENE,71,0.0,0.0,26,0.00,,,0.00,VWS V14.01,2013-07-07 12:35:00,
2013-07-07 05:41:00,57.4,22.8,29.88,ENE,71,0.0,0.0,26,0.00,,,0.00,VWS V14.01,2013-07-07 12:41:00,
2013-07-07 05:47:00,57.2,22.6,29.88,ENE,71,0.0,0.0,26,0.00,,,0.00,VWS V14.01,2013-07-07 12:47:00,
2013-07-07 05:52:00,57.0,22.5,29.88,ENE,71,0.0,0.0,26,0.00,,,0.00,VWS V14.01,2013-07-07 12:52:00,
2013-07-07 05:58:00,57.2,22.6,29.88,ENE,71,0.0,0.0,26,0.00,,,0.00,VWS V14.01,2013-07-07 12:58:00,
2013-07-07 06:03:00,57.2,22.6,29.88,ENE,71,0.0,0.0,26,0.00,,,0.00,VWS V14.01,2013-07-07 13:03:00,
2013-07-07 06:08:00,57.0,22.5,29.88,ENE,71,0.0,0.0,26,0.00,,,0.00,VWS V14.01,2013-07-07 13:08:00,
2013-07-07 06:14:00,56.8,22.3,29.88,ENE,71,0.0,0.0,26,0.00,,,0.00,VWS V14.01,2013-07-07 13:14:00,
2013-07-07 06:20:00,56.8,22.3,29.88,ENE,71,0.0,0.0,26,0.00,,,0.00,VWS V14.01,2013-07-07 13:20:00,
2013-07-07 06:25:00,56.5,22.0,29.88,ENE,71,0.0,0.0,26,0.00,,,0.00,VWS V14.01,2013-07-07 13:25:00,
2013-07-07 06:31:00,56.3,21.9,29.88,ENE,71,0.0,0.0,26,0.00,,,0.00,VWS V14.01,2013-07-07 13:31:00,
2013-07-07 06:36:00,56.3,21.9,29.88,ENE,71,0.0,0.0,26,0.00,,,0.00,VWS V14.01,2013-07-07 13:36:00,
2013-07-07 06:41:00,56.1,21.7,29.88,ENE,71,0.0,0.0,26,0.00,,,0.00,VWS V14.01,2013-07-07 13:41:00,
2013-07-07 06:46:00,55.9,21.6,29.88,ENE,71,0.0,0.0,26,0.00,,,0.00,VWS V14.01,2013-07-07 13:46:00,
2013-07-07 06:51:00,55.8,21.4,29.88,ENE,71,0.0,0.0,26,0.00,,,0.00,VWS V14.01,2013-07-07 13:51:00,
2013-07-07 06:57:00,55.9,21.6,29.88,ENE,71,0.0,0.0,26,0.00,,,0.00,VWS V14.01,2013-07-07 13:57:00,
2013-07-07 07:02:00,56.1,21.7,29.88,ENE,71,0.0,0.0,26,0.00,,,0.00,VWS V14.01,2013-07-07 14:02:00,
2013-07-07 07:08:00,56.3,21.9,29.88,ENE,71,0.0,0.0,26,0.00,,,0.00,VWS V14.01,2013-07-07 14:08:00,
2013-07-07 07:14:00,56.1,21.7,29.88,ENE,71,0.0,0.0,26,0.00,,,0.00,VWS V14.01,2013-07-07 14:14:00,
2013-07-07 07:19:00,55.9,21.6,29.88,ENE,71,0.0,0.0,26,0.00,,,0.00,VWS V14.01,2013-07-07 14:19:00,
2013-07-07 07:24:00,55.9,21.6,29.88,ENE,71,0.0,0.0,26,0.00,,,0.00,VWS V14.01,2013-07-07 14:24:00,
2013-07-07 07:29:00,55.9,21.6,29.88,ENE,71,0.0,0.0,26,0.00,,,0.00,VWS V14.01,2013-07-07 14:29:00,
2013-07-07 07:34:00,56.1,21.7,29.88,ENE,71,0.0,0.0,26,0.00,,,0.00,VWS V14.01,2013-07-07 14:34:00,
2013-07-07 07:40:00,56.3,21.9,29.91,ENE,71,0.0,0.0,26,0.00,,,0.00,VWS V14.01,2013-07-07 14:40:00,
2013-07-07 07:45:00,56.5,22.0,29.91,ENE,71,0.0,0.0,26,0.00,,,0.00,VWS V14.01,2013-07-07 14:45:00,
2013-07-07 07:51:00,56.8,22.3,29.88,ENE,71,0.0,0.0,26,0.00,,,0.00,VWS V14.01,2013-07-07 14:51:00,
2013-07-07 07:57:00,56.8,22.3,29.88,ENE,71,0.0,0.0,26,0.00,,,0.00,VWS V14.01,2013-07-07 14:57:00,
2013-07-07 08:02:00,57.4,22.8,29.88,ENE,71,0.0,0.0,26,0.00,,,0.00,VWS V14.01,2013-07-07 15:02:00,
2013-07-07 08:08:00,57.6,23.0,29.88,ENE,71,0.0,0.0,26,0.00,,,0.00,VWS V14.01,2013-07-07 15:08:00,
2013-07-07 08:13:00,57.6,23.0,29.88,ENE,71,0.0,0.0,26,0.00,,,0.00,VWS V14.01,2013-07-07 15:13:00,
2013-07-07 08:19:00,57.6,23.0,29.88,ENE,71,0.0,0.0,26,0.00,,,0.00,VWS V14.01,2013-07-07 15:19:00,
2013-07-07 08:24:00,57.7,23.1,29.88,ENE,71,0.0,0.0,26,0.00,,,0.00,VWS V14.01,2013-07-07 15:24:00,
2013-07-07 08:29:00,58.1,23.4,29.88,ENE,71,0.0,0.0,26,0.00,,,0.00,VWS V14.01,2013-07-07 15:29:00,
2013-07-07 08:35:00,58.3,23.6,29.88,ENE,71,0.0,0.0,26,0.00,,,0.00,VWS V14.01,2013-07-07 15:35:00,
2013-07-07 08:40:00,58.5,22.8,29.88,ENE,71,0.0,0.0,25,0.00,,,0.00,VWS V14.01,2013-07-07 15:40:00,
2013-07-07 08:46:00,58.8,24.0,29.88,ENE,71,0.0,0.0,26,0.00,,,0.00,VWS V14.01,2013-07-07 15:46:00,
2013-07-07 08:52:00,59.0,23.2,29.88,ENE,71,0.0,0.0,25,0.00,,,0.00,VWS V14.01,2013-07-07 15:52:00,
2013-07-07 08:58:00,59.2,23.4,29.88,ENE,71,0.0,0.0,25,0.00,,,0.00,VWS V14.01,2013-07-07 15:58:00,
2013-07-07 09:04:00,59.7,23.9,29.88,ENE,71,0.0,0.0,25,0.00,,,0.00,VWS V14.01,2013-07-07 16:04:00,
2013-07-07 09:10:00,60.1,24.2,29.88,ENE,71,0.0,0.0,25,0.00,,,0.00,VWS V14.01,2013-07-07 16:10:00,
2013-07-07 09:15:00,60.6,24.6,29.88,ENE,71,0.0,0.0,25,0.00,,,0.00,VWS V14.01,2013-07-07 16:15:00,
2013-07-07 09:20:00,61.0,24.9,29.88,ENE,71,0.0,0.0,25,0.00,,,0.00,VWS V14.01,2013-07-07 16:20:00,
2013-07-07 09:26:00,61.3,25.2,29.88,ENE,71,0.0,0.0,25,0.00,,,0.00,VWS V14.01,2013-07-07 16:26:00,
2013-07-07 09:31:00,61.9,25.7,29.88,ENE,71,0.0,0.0,25,0.00,,,0.00,VWS V14.01,2013-07-07 16:31:00,
2013-07-07 09:36:00,62.2,26.0,29.88,ENE,71,0.0,0.0,25,0.00,,,0.00,VWS V14.01,2013-07-07 16:36:00,
2013-07-07 09:42:00,62.4,26.2,29.88,ENE,71,0.0,0.0,25,0.00,,,0.00,VWS V14.01,2013-07-07 16:42:00,
2013-07-07 09:47:00,62.6,25.3,29.88,ENE,71,0.0,0.0,24,0.00,,,0.00,VWS V14.01,2013-07-07 16:47:00,
2013-07-07 09:53:00,63.0,25.6,29.88,ENE,71,0.0,0.0,24,0.00,,,0.00,VWS V14.01,2013-07-07 16:53:00,
2013-07-07 09:58:00,63.1,25.8,29.88,ENE,71,0.0,0.0,24,0.00,,,0.00,VWS V14.01,2013-07-07 16:58:00,
2013-07-07 10:03:00,63.5,26.1,29.88,ENE,71,0.0,0.0,24,0.00,,,0.00,VWS V14.01,2013-07-07 17:03:00,
2013-07-07 10:09:00,63.7,26.2,29.88,ENE,71,0.0,0.0,24,0.00,,,0.00,VWS V14.01,2013-07-07 17:09:00,
2013-07-07 10:15:00,63.5,26.1,29.88,SW,214,0.0,0.0,24,0.00,,,0.00,VWS V14.01,2013-07-07 17:15:00,
2013-07-07 10:20:00,63.5,26.1,29.88,SW,222,0.0,0.0,24,0.00,,,0.00,VWS V14.01,2013-07-07 17:20:00,
2013-07-07 10:25:00,64.2,26.7,29.85,SW,222,0.0,0.0,24,0.00,,,0.00,VWS V14.01,2013-07-07 17:25:00,
2013-07-07 10:30:00,64.9,27.3,29.85,SW,222,0.0,0.0,24,0.00,,,0.00,VWS V14.01,2013-07-07 17:30:00,
2013-07-07 10:35:00,65.5,27.8,29.85,SW,222,0.0,0.0,24,0.00,,,0.00,VWS V14.01,2013-07-07 17:35:00,
2013-07-07 10:41:00,66.2,27.3,29.85,SW,222,0.0,0.0,23,0.00,,,0.00,VWS V14.01,2013-07-07 17:41:00,
2013-07-07 10:47:00,66.9,27.9,29.85,SW,222,0.0,0.0,23,0.00,,,0.00,VWS V14.01,2013-07-07 17:47:00,
2013-07-07 10:52:00,67.6,28.5,29.85,SW,222,0.0,0.0,23,0.00,,,0.00,VWS V14.01,2013-07-07 17:52:00,
2013-07-07 10:58:00,68.2,29.0,29.85,SW,222,0.0,0.0,23,0.00,,,0.00,VWS V14.01,2013-07-07 17:58:00,
2013-07-07 11:03:00,68.4,29.1,29.85,SW,222,0.0,0.0,23,0.00,,,0.00,VWS V14.01,2013-07-07 18:03:00,
2013-07-07 11:08:00,69.1,29.8,29.85,SW,222,0.0,0.0,23,0.00,,,0.00,VWS V14.01,2013-07-07 18:08:00,
2013-07-07 11:14:00,69.4,30.1,29.85,SW,222,0.0,0.0,23,0.00,,,0.00,VWS V14.01,2013-07-07 18:14:00,
2013-07-07 11:19:00,70.0,29.4,29.85,SW,222,0.0,0.0,22,0.00,,,0.00,VWS V14.01,2013-07-07 18:19:00,
2013-07-07 11:24:00,70.2,29.6,29.85,SW,222,0.0,0.0,22,0.00,,,0.00,VWS V14.01,2013-07-07 18:24:00,
2013-07-07 11:29:00,70.7,30.0,29.85,SE,131,0.0,0.0,22,0.00,,,0.00,VWS V14.01,2013-07-07 18:29:00,
2013-07-07 11:35:00,71.1,30.3,29.85,SE,135,0.0,0.0,22,0.00,,,0.00,VWS V14.01,2013-07-07 18:35:00,
2013-07-07 11:41:00,72.1,31.2,29.85,SE,128,0.0,0.0,22,0.00,,,0.00,VWS V14.01,2013-07-07 18:41:00,
2013-07-07 11:46:00,72.3,31.4,29.85,SE,140,3.6,3.6,22,0.00,,,0.00,VWS V14.01,2013-07-07 18:46:00,
2013-07-07 11:52:00,72.3,31.4,29.82,ESE,106,0.0,0.0,22,0.00,,,0.00,VWS V14.01,2013-07-07 18:52:00,
2013-07-07 11:57:00,72.7,31.7,29.82,ESE,104,0.0,0.0,22,0.00,,,0.00,VWS V14.01,2013-07-07 18:57:00,
2013-07-07 12:03:00,73.9,31.6,29.82,ESE,104,0.0,0.0,21,0.00,,,0.00,VWS V14.01,2013-07-07 19:03:00,
2013-07-07 12:08:00,74.8,32.3,29.82,ESE,104,0.0,0.0,21,0.00,,,0.00,VWS V14.01,2013-07-07 19:08:00,
2013-07-07 12:14:00,75.7,29.3,29.82,ENE,68,6.3,6.3,18,0.00,,,0.00,VWS V14.01,2013-07-07 19:14:00,
2013-07-07 12:20:00,77.0,30.3,29.82,East,95,0.0,0.0,18,0.00,,,0.00,VWS V14.01,2013-07-07 19:20:00,
2013-07-07 12:26:00,76.6,30.0,29.82,ESE,114,0.0,0.0,18,0.00,,,0.00,VWS V14.01,2013-07-07 19:26:00,
2013-07-07 12:31:00,77.2,30.4,29.82,ESE,117,0.0,0.0,18,0.00,,,0.00,VWS V14.01,2013-07-07 19:31:00,
2013-07-07 12:37:00,77.9,31.0,29.82,SSE,156,0.0,0.0,18,0.00,,,0.00,VWS V14.01,2013-07-07 19:37:00,
2013-07-07 12:42:00,78.1,31.2,29.82,SSE,156,0.0,0.0,18,0.00,,,0.00,VWS V14.01,2013-07-07 19:42:00,
2013-07-07 12:48:00,78.4,27.0,29.82,SSE,156,0.0,0.0,15,0.00,,,0.00,VWS V14.01,2013-07-07 19:48:00,
2013-07-07 12:53:00,78.3,31.3,29.82,SSE,158,0.0,0.0,18,0.00,,,0.00,VWS V14.01,2013-07-07 19:53:00,
2013-07-07 12:59:00,78.3,31.3,29.82,WSW,237,0.0,0.0,18,0.00,,,0.00,VWS V14.01,2013-07-07 19:59:00,
2013-07-07 13:04:00,78.6,31.6,29.82,SSW,212,0.0,0.0,18,0.00,,,0.00,VWS V14.01,2013-07-07 20:04:00,
2013-07-07 13:10:00,79.0,30.5,29.82,SW,223,0.0,0.0,17,0.00,,,0.00,VWS V14.01,2013-07-07 20:10:00,
2013-07-07 13:16:00,79.2,30.6,29.82,SW,228,0.0,0.0,17,0.00,,,0.00,VWS V14.01,2013-07-07 20:16:00,
2013-07-07 13:21:00,79.5,27.9,29.82,SW,225,0.0,0.0,15,0.00,,,0.00,VWS V14.01,2013-07-07 20:21:00,
2013-07-07 13:27:00,78.4,31.5,29.82,SW,231,5.4,5.4,18,0.00,,,0.00,VWS V14.01,2013-07-07 20:27:00,
2013-07-07 13:32:00,77.5,30.7,29.82,SW,231,5.4,5.4,18,0.00,,,0.00,VWS V14.01,2013-07-07 20:32:00,
2013-07-07 13:38:00,76.8,32.8,29.82,SW,232,4.9,5.4,20,0.00,,,0.00,VWS V14.01,2013-07-07 20:38:00,
2013-07-07 13:44:00,77.0,30.3,29.82,SW,236,3.6,3.6,18,0.00,,,0.00,VWS V14.01,2013-07-07 20:44:00,
2013-07-07 13:49:00,77.2,30.4,29.82,WSW,237,0.0,0.0,18,0.00,,,0.00,VWS V14.01,2013-07-07 20:49:00,
2013-07-07 13:55:00,78.3,33.9,29.79,SW,222,3.6,4.5,20,0.00,,,0.00,VWS V14.01,2013-07-07 20:55:00,
2013-07-07 14:00:00,77.7,30.9,29.79,SW,217,5.8,5.8,18,0.00,,,0.00,VWS V14.01,2013-07-07 21:00:00,
2013-07-07 14:06:00,77.2,30.4,29.79,SW,224,5.8,6.3,18,0.00,,,0.00,VWS V14.01,2013-07-07 21:06:00,
2013-07-07 14:11:00,77.5,30.7,29.79,SW,229,6.3,7.6,18,0.00,,,0.00,VWS V14.01,2013-07-07 21:11:00,
2013-07-07 14:17:00,77.7,30.9,29.79,WSW,241,7.6,7.6,18,0.00,,,0.00,VWS V14.01,2013-07-07 21:17:00,
2013-07-07 14:23:00,77.4,30.6,29.79,WSW,241,5.8,5.8,18,0.00,,,0.00,VWS V14.01,2013-07-07 21:23:00,
2013-07-07 14:28:00,77.2,30.4,29.79,WSW,254,5.4,6.3,18,0.00,,,0.00,VWS V14.01,2013-07-07 21:28:00,
2013-07-07 14:34:00,77.4,30.6,29.79,SW,224,6.7,6.7,18,0.00,,,0.00,VWS V14.01,2013-07-07 21:34:00,
2013-07-07 14:40:00,77.9,31.0,29.79,SW,227,5.8,5.8,18,0.00,,,0.00,VWS V14.01,2013-07-07 21:40:00,
2013-07-07 14:45:00,77.5,30.7,29.79,WSW,240,7.6,7.6,18,0.00,,,0.00,VWS V14.01,2013-07-07 21:45:00,
2013-07-07 14:51:00,77.9,31.0,29.79,SW,231,5.8,5.8,18,0.00,,,0.00,VWS V14.01,2013-07-07 21:51:00,
2013-07-07 14:57:00,78.1,31.2,29.79,SW,223,4.9,6.3,18,0.00,,,0.00,VWS V14.01,2013-07-07 21:57:00,
2013-07-07 15:02:00,78.1,31.2,29.79,SW,222,4.0,5.8,18,0.00,,,0.00,VWS V14.01,2013-07-07 22:02:00,
2013-07-07 15:07:00,78.4,31.5,29.79,SW,229,5.4,5.8,18,0.00,,,0.00,VWS V14.01,2013-07-07 22:07:00,
2013-07-07 15:12:00,78.6,31.6,29.79,SW,219,3.1,4.0,18,0.00,,,0.00,VWS V14.01,2013-07-07 22:12:00,
2013-07-07 15:18:00,78.3,31.3,29.79,SW,233,2.7,2.7,18,0.00,,,0.00,VWS V14.01,2013-07-07 22:18:00,
2013-07-07 15:23:00,77.9,31.0,29.79,SW,233,0.0,0.0,18,0.00,,,0.00,VWS V14.01,2013-07-07 22:23:00,
2013-07-07 15:29:00,76.6,30.0,29.79,West,272,4.0,5.8,18,0.00,,,0.00,VWS V14.01,2013-07-07 22:29:00,
2013-07-07 15:34:00,76.3,29.7,29.79,WSW,244,5.4,8.1,18,0.00,,,0.00,VWS V14.01,2013-07-07 22:34:00,
2013-07-07 15:39:00,76.1,29.6,29.79,West,277,3.1,7.6,18,0.00,,,0.00,VWS V14.01,2013-07-07 22:39:00,
2013-07-07 15:44:00,75.4,32.8,29.79,WSW,250,0.0,0.0,21,0.00,,,0.00,VWS V14.01,2013-07-07 22:44:00,
2013-07-07 15:49:00,73.4,32.3,29.79,WNW,297,0.0,0.0,22,0.00,,,0.00,VWS V14.01,2013-07-07 22:49:00,
2013-07-07 15:55:00,71.4,31.7,29.79,NNW,340,0.0,0.0,23,0.00,,,0.00,VWS V14.01,2013-07-07 22:55:00,
2013-07-07 16:00:00,67.5,29.4,29.79,NNW,334,0.0,0.0,24,0.00,,,0.00,VWS V14.01,2013-07-07 23:00:00,
2013-07-07 16:05:00,66.6,28.7,29.79,NNW,339,0.0,0.0,24,0.08,,,0.08,VWS V14.01,2013-07-07 23:05:00,
2013-07-07 16:11:00,66.6,28.7,29.79,NNW,342,0.0,0.0,24,0.08,,,0.08,VWS V14.01,2013-07-07 23:11:00,
2013-07-07 16:16:00,66.6,28.7,29.79,NNW,343,0.0,0.0,24,0.08,,,0.08,VWS V14.01,2013-07-07 23:16:00,
2013-07-07 16:22:00,67.6,29.6,29.79,North,350,0.0,0.0,24,0.08,,,0.08,VWS V14.01,2013-07-07 23:22:00,
2013-07-07 16:27:00,67.6,29.6,29.79,NNW,327,0.0,0.0,24,0.08,,,0.08,VWS V14.01,2013-07-07 23:27:00,
2013-07-07 16:33:00,67.8,29.7,29.79,North,353,0.0,0.0,24,0.08,,,0.08,VWS V14.01,2013-07-07 23:33:00,
2013-07-07 16:39:00,68.0,28.9,29.79,North,353,0.0,0.0,23,0.08,,,0.08,VWS V14.01,2013-07-07 23:39:00,
2013-07-07 16:44:00,68.2,29.0,29.79,North,353,0.0,0.0,23,0.08,,,0.08,VWS V14.01,2013-07-07 23:44:00,
2013-07-07 16:49:00,68.4,29.1,29.79,North,353,0.0,0.0,23,0.08,,,0.08,VWS V14.01,2013-07-07 23:49:00,
2013-07-07 16:54:00,68.4,29.1,29.79,NNW,348,0.0,4.0,23,0.08,,,0.08,VWS V14.01,2013-07-07 23:54:00,
2013-07-07 16:59:00,68.9,29.6,29.79,NNW,340,2.7,2.7,23,0.08,,,0.08,VWS V14.01,2013-07-07 23:59:00,
2013-07-07 17:05:00,69.3,29.9,29.79,North,349,0.0,0.0,23,0.00,,,0.08,VWS V14.01,2013-07-08 00:05:00,
2013-07-07 17:10:00,69.3,29.9,29.79,NNW,348,2.7,2.7,23,0.00,,,0.08,VWS V14.01,2013-07-08 00:10:00,
2013-07-07 17:15:00,69.3,29.9,29.79,WNW,295,0.0,0.0,23,0.00,,,0.08,VWS V14.01,2013-07-08 00:15:00,
2013-07-07 17:20:00,69.8,30.4,29.79,North,6,0.0,0.0,23,0.00,,,0.08,VWS V14.01,2013-07-08 00:20:00,
2013-07-07 17:25:00,70.0,30.5,29.79,North,1,0.0,0.0,23,0.00,,,0.08,VWS V14.01,2013-07-08 00:25:00,
2013-07-07 17:30:00,69.4,30.1,29.79,North,0,0.0,0.0,23,0.00,,,0.08,VWS V14.01,2013-07-08 00:30:00,
2013-07-07 17:36:00,70.0,30.5,29.79,NE,45,0.0,0.0,23,0.00,,,0.08,VWS V14.01,2013-07-08 00:36:00,
2013-07-07 17:41:00,68.9,29.6,29.79,ESE,115,4.0,4.0,23,0.00,,,0.08,VWS V14.01,2013-07-08 00:41:00,
2013-07-07 17:46:00,70.9,30.2,29.79,ESE,109,0.0,0.0,22,0.00,,,0.08,VWS V14.01,2013-07-08 00:46:00,
2013-07-07 17:51:00,71.1,31.4,29.82,North,9,2.2,7.6,23,0.00,,,0.08,VWS V14.01,2013-07-08 00:51:00,
2013-07-07 17:57:00,70.2,30.7,29.82,NE,51,0.0,0.0,23,0.00,,,0.08,VWS V14.01,2013-07-08 00:57:00,
2013-07-07 18:02:00,69.6,30.2,29.82,NE,36,0.0,2.7,23,0.00,,,0.08,VWS V14.01,2013-07-08 01:02:00,
2013-07-07 18:08:00,67.8,28.7,29.82,SE,132,3.1,5.4,23,0.00,,,0.08,VWS V14.01,2013-07-08 01:08:00,
2013-07-07 18:13:00,65.3,27.6,29.82,East,95,4.0,4.9,24,0.00,,,0.08,VWS V14.01,2013-07-08 01:13:00,
2013-07-07 18:18:00,65.7,27.9,29.82,North,353,0.0,0.0,24,0.00,,,0.08,VWS V14.01,2013-07-08 01:18:00,
2013-07-07 18:24:00,66.4,28.5,29.82,ENE,78,0.0,0.0,24,0.00,,,0.08,VWS V14.01,2013-07-08 01:24:00,
2013-07-07 18:29:00,66.4,28.5,29.82,NE,54,0.0,2.7,24,0.00,,,0.08,VWS V14.01,2013-07-08 01:29:00,
2013-07-07 18:35:00,66.7,28.8,29.82,ENE,75,0.0,0.0,24,0.00,,,0.08,VWS V14.01,2013-07-08 01:35:00,
2013-07-07 18:40:00,66.7,28.8,29.82,East,96,4.0,5.8,24,0.00,,,0.08,VWS V14.01,2013-07-08 01:40:00,
2013-07-07 18:46:00,65.5,27.8,29.82,ESE,117,2.2,4.0,24,0.00,,,0.08,VWS V14.01,2013-07-08 01:46:00,
2013-07-07 18:52:00,64.4,26.9,29.82,ESE,117,0.0,0.0,24,0.00,,,0.08,VWS V14.01,2013-07-08 01:52:00,
2013-07-07 18:57:00,63.5,26.1,29.82,ESE,117,0.0,0.0,24,0.00,,,0.08,VWS V14.01,2013-07-08 01:57:00,
2013-07-07 19:03:00,63.0,25.6,29.82,East,92,0.0,0.0,24,0.00,,,0.08,VWS V14.01,2013-07-08 02:03:00,
2013-07-07 19:08:00,62.6,25.3,29.82,East,91,3.6,3.6,24,0.00,,,0.08,VWS V14.01,2013-07-08 02:08:00,
2013-07-07 19:14:00,63.0,25.6,29.82,East,89,0.0,0.0,24,0.00,,,0.08,VWS V14.01,2013-07-08 02:14:00,
2013-07-07 19:19:00,62.8,25.5,29.82,ESE,120,0.0,2.7,24,0.00,,,0.08,VWS V14.01,2013-07-08 02:19:00,
2013-07-07 19:24:00,62.6,25.3,29.82,ESE,118,0.0,0.0,24,0.00,,,0.08,VWS V14.01,2013-07-08 02:24:00,
2013-07-07 19:29:00,62.4,26.2,29.82,ESE,118,0.0,0.0,25,0.00,,,0.08,VWS V14.01,2013-07-08 02:29:00,
2013-07-07 19:35:00,62.4,26.2,29.82,ESE,118,0.0,0.0,25,0.00,,,0.08,VWS V14.01,2013-07-08 02:35:00,
2013-07-07 19:40:00,62.4,26.2,29.82,ESE,118,0.0,0.0,25,0.00,,,0.08,VWS V14.01,2013-07-08 02:40:00,
2013-07-07 19:46:00,62.6,25.3,29.82,ESE,118,0.0,0.0,24,0.00,,,0.08,VWS V14.01,2013-07-08 02:46:00,
2013-07-07 19:52:00,63.0,25.6,29.82,ESE,118,0.0,0.0,24,0.00,,,0.08,VWS V14.01,2013-07-08 02:52:00,
2013-07-07 19:58:00,63.5,26.1,29.82,ESE,118,0.0,0.0,24,0.00,,,0.08,VWS V14.01,2013-07-08 02:58:00,
2013-07-07 20:04:00,63.7,26.2,29.82,ESE,118,0.0,0.0,24,0.00,,,0.08,VWS V14.01,2013-07-08 03:04:00,
2013-07-07 20:09:00,64.0,26.5,29.82,ESE,118,0.0,0.0,24,0.00,,,0.08,VWS V14.01,2013-07-08 03:09:00,
2013-07-07 20:15:00,64.4,26.9,29.82,ESE,118,0.0,0.0,24,0.00,,,0.08,VWS V14.01,2013-07-08 03:15:00,
2013-07-07 20:21:00,64.6,27.0,29.82,SE,136,4.0,4.0,24,0.00,,,0.08,VWS V14.01,2013-07-08 03:21:00,
2013-07-07 20:27:00,63.5,26.1,29.82,SE,131,0.0,0.0,24,0.00,,,0.08,VWS V14.01,2013-07-08 03:27:00,
2013-07-07 20:33:00,63.3,25.9,29.82,North,6,0.0,0.0,24,0.00,,,0.08,VWS V14.01,2013-07-08 03:33:00,
2013-07-07 20:38:00,63.5,26.1,29.82,North,6,0.0,0.0,24,0.00,,,0.08,VWS V14.01,2013-07-08 03:38:00,
2013-07-07 20:43:00,63.5,26.1,29.82,North,6,0.0,0.0,24,0.00,,,0.08,VWS V14.01,2013-07-08 03:43:00,
2013-07-07 20:49:00,63.3,25.9,29.82,North,357,0.0,0.0,24,0.00,,,0.08,VWS V14.01,2013-07-08 03:49:00,
2013-07-07 20:55:00,63.3,25.9,29.85,North,357,0.0,0.0,24,0.00,,,0.08,VWS V14.01,2013-07-08 03:55:00,
2013-07-07 21:00:00,63.5,26.1,29.85,North,357,0.0,0.0,24,0.00,,,0.08,VWS V14.01,2013-07-08 04:00:00,
2013-07-07 21:01:00,63.5,26.1,29.85,North,357,0.0,0.0,24,0.00,,,0.08,VWS V14.01,2013-07-08 04:01:00,
2013-07-07 21:04:00,63.5,26.1,29.85,North,357,0.0,0.0,24,0.00,,,0.08,VWS V14.01,2013-07-08 04:04:00,
2013-07-07 21:05:00,63.5,26.1,29.85,North,357,0.0,0.0,24,0.00,,,0.08,VWS V14.01,2013-07-08 04:05:00,
2013-07-07 21:07:00,63.5,26.1,29.85,North,357,0.0,0.0,24,0.00,,,0.08,VWS V14.01,2013-07-08 04:07:00,
2013-07-07 21:13:00,63.5,26.1,29.85,North,357,0.0,0.0,24,0.00,,,0.08,VWS V14.01,2013-07-08 04:13:00,
2013-07-07 21:16:00,63.7,26.2,29.85,NE,46,4.0,4.9,24,0.00,,,0.08,VWS V14.01,2013-07-08 04:16:00,
2013-07-07 21:22:00,63.5,26.1,29.85,WSW,252,0.0,0.0,24,0.00,,,0.08,VWS V14.01,2013-07-08 04:22:00,
2013-07-07 21:28:00,63.5,26.1,29.85,NW,316,3.6,3.6,24,0.00,,,0.08,VWS V14.01,2013-07-08 04:28:00,
2013-07-07 21:34:00,65.1,27.5,29.85,NW,316,0.0,0.0,24,0.00,,,0.08,VWS V14.01,2013-07-08 04:34:00,
2013-07-07 21:39:00,66.4,27.5,29.85,SW,226,2.7,3.1,23,0.00,,,0.08,VWS V14.01,2013-07-08 04:39:00,
2013-07-07 21:45:00,67.5,28.4,29.85,West,262,8.3,8.3,23,0.00,,,0.08,VWS V14.01,2013-07-08 04:45:00,
2013-07-07 21:51:00,68.2,29.0,29.85,SSW,212,3.6,8.1,23,0.00,,,0.08,VWS V14.01,2013-07-08 04:51:00,
2013-07-07 21:56:00,68.2,29.0,29.85,South,179,6.3,6.3,23,0.00,,,0.08,VWS V14.01,2013-07-08 04:56:00,
2013-07-07 22:01:00,67.6,28.5,29.85,WSW,245,5.8,12.3,23,0.00,,,0.08,VWS V14.01,2013-07-08 05:01:00,
2013-07-07 22:07:00,68.0,28.9,29.85,West,274,2.2,8.7,23,0.00,,,0.08,VWS V14.01,2013-07-08 05:07:00,
2013-07-07 22:12:00,68.2,29.0,29.85,WSW,239,5.4,8.7,23,0.00,,,0.08,VWS V14.01,2013-07-08 05:12:00,
2013-07-07 22:18:00,68.2,29.0,29.85,WSW,241,6.3,8.1,23,0.00,,,0.08,VWS V14.01,2013-07-08 05:18:00,
2013-07-07 22:23:00,68.0,28.9,29.85,WNW,297,6.3,7.2,23,0.00,,,0.08,VWS V14.01,2013-07-08 05:23:00,
2013-07-07 22:29:00,67.6,28.5,29.85,WSW,256,0.0,4.9,23,0.00,,,0.08,VWS V14.01,2013-07-08 05:29:00,
2013-07-07 22:34:00,67.6,28.5,29.85,SW,230,5.8,7.6,23,0.00,,,0.08,VWS V14.01,2013-07-08 05:34:00,
2013-07-07 22:40:00,67.8,28.7,29.85,SSW,210,8.7,8.7,23,0.00,,,0.08,VWS V14.01,2013-07-08 05:40:00,
2013-07-07 22:45:00,67.5,28.4,29.85,SSW,212,5.8,8.3,23,0.00,,,0.08,VWS V14.01,2013-07-08 05:45:00,
2013-07-07 22:50:00,67.5,28.4,29.85,SSW,207,3.6,7.6,23,0.00,,,0.08,VWS V14.01,2013-07-08 05:50:00,
2013-07-07 22:55:00,67.3,28.2,29.85,SW,222,8.1,11.0,23,0.00,,,0.08,VWS V14.01,2013-07-08 05:55:00,
2013-07-07 23:01:00,66.9,27.9,29.85,SW,232,8.3,8.3,23,0.00,,,0.08,VWS V14.01,2013-07-08 06:01:00,
2013-07-07 23:06:00,66.6,27.6,29.88,SW,218,6.3,6.3,23,0.00,,,0.08,VWS V14.01,2013-07-08 06:06:00,
2013-07-07 23:12:00,66.4,27.5,29.88,WSW,252,7.2,10.5,23,0.00,,,0.08,VWS V14.01,2013-07-08 06:12:00,
2013-07-07 23:17:00,66.2,27.3,29.88,SW,225,7.6,8.1,23,0.00,,,0.08,VWS V14.01,2013-07-08 06:17:00,
2013-07-07 23:23:00,66.0,28.2,29.88,SW,234,8.3,9.6,24,0.00,,,0.08,VWS V14.01,2013-07-08 06:23:00,
2013-07-07 23:28:00,65.8,28.1,29.88,SW,216,8.3,11.0,24,0.00,,,0.08,VWS V14.01,2013-07-08 06:28:00,
2013-07-07 23:33:00,65.8,28.1,29.88,SW,224,8.7,8.7,24,0.00,,,0.08,VWS V14.01,2013-07-08 06:33:00,
2013-07-07 23:38:00,65.8,28.1,29.88,WSW,249,5.4,5.4,24,0.00,,,0.08,VWS V14.01,2013-07-08 06:38:00,
2013-07-07 23:44:00,65.7,27.9,29.88,SW,229,8.7,11.0,24,0.00,,,0.08,VWS V14.01,2013-07-08 06:44:00,
2013-07-07 23:50:00,65.7,27.9,29.88,West,260,2.2,2.2,24,0.00,,,0.08,VWS V14.01,2013-07-08 06:50:00,
2013-07-07 23:56:00,65.3,27.6,29.88,WSW,241,6.3,9.2,24,0.00,,,0.08,VWS V14.01,2013-07-08 06:56:00,